Погода в Агапине

Россия / Курганская область     56°14′06″N   63°33′41″E
темп.,
°C
ветер,
м/с
пор.,
м/с
влажн.,
%
обл.,
%
осадки,
мм/ч
давл.,
гПа
погр.,
м
3 марта, ср
ср323:00−14ю51094100 0.0 1004281
02:00−12ю4895100 0.3 1002223
05:00−10ююз3796100 0.3 1002164
08:00−10ююз51095100 0.1 1000318
11:00−6юз61093100 0.6 1000530
14:00−4юз699099 0.1 999539
17:00−3ююз5109089 0.1 1000431
20:00−6ююз4119389 0.0 999226
4 марта, чт
чт423:00−7ююз489495 0.0 1000145
02:00−8ююз3494100 0.0 99876
05:00−9юз349494 0.0 99846
08:00−10юз349361 0.0 99754
11:00−6зюз479447 0.0 996312
14:00−4зюз579094 0.0 996621
17:00−3зсз699098 0.6 997759
20:00−10зюз488852 0.0 998138
5 марта, пт
пт523:00−9юз4109059 0.0 999245
02:00−11ююз479195 0.0 998131
05:00−8юз6119597 0.5 998422
08:00−7ююз5119497 0.5 998452
11:00−4з6109095 0.6 999514
14:00−2юз7108598 0.0 1000838
17:00−2юз4108799 0.0 1001550
20:00−3юз1197100 0.3 100021
6 марта, сб
сб623:00−3ссв2497100 1.8 1000117
02:00−4всв2397100 0.8 99786
05:00−5с71195100 2.9 998405
08:00−9зсз6139197 0.6 1003406
11:00−10зсз7118865 0.6 1007513
14:00−8з698576 0.0 1009713
17:00−9з498788 0.0 1009640
20:00−13зюз4793100 0.0 1010108
7 марта, вс
вс723:00−15з2393100 0.0 101121
02:00−16сз1292100 0.0 100920
05:00−16с2292100 0.0 100820
08:00−16с3393100 0.0 100768
11:00−14сз349296 0.0 1007243
14:00−11зсз358761 0.0 1008375
17:00−11зюз249130 0.0 1009115
20:00−16юз33910 0.0 101121